This is the latest recevied weather packets stored in our database for station/object KB1FFS. If no packets are shown the sender has not sent any weather packets the latest 10 day(s).
| Time | Temp. | Humidity | Pressure | Rain* | Wind** | Luminosity | Snow |
|---|---|---|---|---|---|---|---|
| 1787705382 | 35.56° C | 29% | 1013.6 hPa | 0 mm | - | 5 W/m² | - |
| 1787705077 | 35.56° C | 29% | 1013.8 hPa | 0 mm | - | 7 W/m² | - |
| 1787704773 | 36.11° C | 29% | 1013.8 hPa | 0 mm | - | 11 W/m² | - |
| 1787704470 | 36.11° C | 28% | 1013.8 hPa | 0 mm | - | 15 W/m² | - |
| 1787704170 | 36.67° C | 28% | 1013.9 hPa | 0 mm | - | 19 W/m² | - |
| 1787703869 | 36.67° C | 28% | 1013.8 hPa | 0 mm | - | 23 W/m² | - |
| 1787703565 | 36.67° C | 27% | 1013.9 hPa | 0 mm | - | 24 W/m² | - |
| 1787703264 | 37.22° C | 28% | 1013.9 hPa | 0 mm | - | 24 W/m² | - |
| 1787702960 | 37.22° C | 27% | 1014.1 hPa | 0 mm | - | 27 W/m² | - |
| 1787702656 | 37.78° C | 26% | 1014.1 hPa | 0 mm | - | 35 W/m² | - |
| 1787702351 | 37.78° C | 25% | 1014.2 hPa | 0 mm | - | 46 W/m² | - |
| 1787702050 | 37.78° C | 25% | 1014.1 hPa | 0 mm | - | 50 W/m² | - |
| 1787701748 | 38.33° C | 24% | 1013.9 hPa | 0 mm | - | 58 W/m² | - |
| 1787701442 | 38.89° C | 23% | 1014.1 hPa | 0 mm | - | 62 W/m² | - |
| 1787701137 | 38.89° C | 23% | 1014.2 hPa | 0 mm | - | 67 W/m² | - |
| 1787700833 | 38.89° C | 23% | 1014.2 hPa | 0 mm | - | 76 W/m² | - |
| 1787700529 | 38.89° C | 23% | 1014.1 hPa | 0 mm | - | 83 W/m² | - |
| 1787700224 | 39.44° C | 22% | 1014.1 hPa | 0 mm | - | 83 W/m² | - |
| 1787699921 | 39.44° C | 22% | 1014.3 hPa | 0 mm | - | 91 W/m² | - |
| 1787699616 | 40° C | 23% | 1014.1 hPa | 0 mm | - | 107 W/m² | - |
| 1787699311 | 40° C | 22% | 1014 hPa | 0 mm | - | 134 W/m² | - |
| 1787699007 | 40° C | 22% | 1013.9 hPa | 0 mm | - | 188 W/m² | - |
| 1787698707 | 40.56° C | 22% | 1014.1 hPa | 0 mm | - | 185 W/m² | - |
| 1787698404 | 40.56° C | 24% | 1014 hPa | 0 mm | - | 239 W/m² | - |
| 1787698100 | 40° C | 24% | 1014.2 hPa | 0 mm | - | 251 W/m² | - |
* Rain latest hour (hover to see other rain measurements)
** Current wind speed in m/s (hover to see current wind gust speed)